Theta_e
311 311 311 311 310 310 309 309 309 309 310 310 311 311 311 311 311 312 312 312 313 313 313 313 312 313 306 297 296 304 313 309 308 305 302 308 302 300 298 302 306 305 306 309 312 313 313
310 310 311 310 310 310 310 310 310 309 309 310 310 311 311 311 311 312 312 313 313 312 312 313 313 312 301 291 304 307 307 308 305 303 301 304 306 303 300 300 301 306 307 307 309 312 313
311 310 310 310 310 309 309 310 310 310 310 310 310 310 310 311 311 312 313 313 313 313 315 313 312 309 299 297 307 309 308 307 305 304 300 301 302 304 301 297 302 302 300 302 306 309 309
310 310 310 309 309 309 309 309 310 309 310 310 310 310 310 310 311 312 313 313 313 315 316 314 313 307 297 307 310 308 308 306 306 306 303 303 301 299 302 303 300 297 298 294 302 302 305
309 309 309 309 309 309 309 309 309 309 309 310 310 310 309 310 311 312 312 313 314 314 315 315 308 303 297 309 304 308 309 303 304 304 303 303 301 297 299 295 293 296 291 294 297 303 302
309 309 309 309 309 309 309 309 309 309 309 309 309 309 308 309 311 311 311 312 313 315 313 311 309 297 300 298 303 304 307 306 301 300 299 298 297 293 294 293 286 290 291 294 294 300 301
308 309 308 308 308 308 308 308 309 309 309 309 309 308 308 309 310 310 308 305 300 299 300 295 296 295 297 302 305 302 304 301 300 298 292 294 290 287 291 294 295 294 293 293 296 301 300
307 308 308 308 308 307 307 308 308 308 308 308 308 308 308 309 309 310 306 300 300 301 294 299 298 298 300 301 296 300 303 295 294 290 293 290 286 291 293 293 292 292 291 291 295 298 298
308 308 308 308 307 307 307 308 308 307 307 308 307 308 308 308 309 306 303 302 306 301 293 295 298 297 299 300 295 296 299 296 292 290 290 288 290 293 292 291 290 291 290 291 291 295 298
308 308 308 308 308 308 308 308 308 308 307 307 307 307 308 307 303 303 301 306 306 302 288 289 293 297 299 299 293 301 301 297 293 289 290 290 294 289 289 288 291 287 293 293 292 291 288
308 308 308 309 309 309 308 308 308 308 308 308 307 307 307 306 302 301 303 306 303 299 276 290 293 303 300 294 295 296 303 297 291 291 291 289 290 289 287 289 291 289 293 292 291 290 289
309 309 309 309 309 309 309 309 309 309 309 308 308 308 307 304 303 305 305 303 301 286 276 286 293 292 292 294 294 296 296 300 300 294 294 293 297 293 290 292 292 293 291 292 292 289 283
309 309 309 309 309 309 308 308 309 309 308 308 307 307 305 304 301 304 304 299 285 280 289 286 287 291 290 289 290 291 290 290 289 285 286 290 291 294 294 288 291 290 288 281 280 280 280
309 309 309 309 309 308 308 307 307 308 308 307 307 303 306 306 307 306 300 291 279 282 285 291 290 290 287 289 289 289 289 287 293 290 286 284 282 291 293 291 287 288 287 283 276 278 282
308 308 308 309 308 308 307 307 307 307 307 306 304 304 304 306 306 303 296 285 283 285 289 288 289 285 285 288 288 288 288 287 291 292 284 283 283 291 294 294 292 287 284 290 284 285 283
308 308 308 308 308 308 307 307 307 308 307 305 300 301 303 305 305 302 293 286 287 290 292 291 284 287 283 286 286 287 286 291 290 293 294 289 282 290 290 294 293 290 292 283 284 278 277
308 309 309 309 308 308 307 307 307 308 306 304 300 300 304 304 304 297 288 287 289 294 294 290 287 286 287 286 287 286 286 290 293 292 294 291 287 285 290 287 287 288 287 287 288 285 281
309 309 310 310 309 309 308 307 306 307 305 303 297 294 304 303 295 289 288 288 292 292 295 292 292 290 288 288 286 286 285 289 295 294 288 292 288 283 285 291 293 291 288 289 284 282 285
309 309 309 310 310 309 309 308 307 307 305 300 293 294 303 300 288 287 289 289 291 291 291 291 289 291 292 288 284 288 288 293 294 293 290 292 286 280 282 288 291 288 289 290 289 289 285
308 309 309 310 310 309 309 308 308 307 306 301 295 290 294 294 292 288 285 286 287 292 292 293 291 292 289 288 290 287 288 292 294 294 297 295 287 284 279 283 287 285 287 289 289 284 285
308 308 308 309 309 310 309 308 308 307 305 297 291 289 290 287 287 287 288 287 285 286 292 292 290 290 288 284 285 285 289 290 293 295 294 292 284 287 287 288 288 287 287 288 286 288 284
308 308 308 309 310 310 310 309 307 307 304 295 290 289 292 288 288 288 288 287 287 288 288 287 287 289 290 286 287 284 287 288 288 292 290 293 285 287 284 287 287 285 287 288 288 288 288
308 309 309 309 309 309 309 309 307 307 304 296 294 293 291 288 287 286 287 287 287 288 290 292 290 289 288 290 293 293 294 293 291 289 288 288 286 284 280 286 286 282 287 288 289 291 290
309 309 309 309 308 308 307 308 307 307 304 299 297 294 288 285 286 287 287 288 287 289 287 291 293 290 295 298 296 296 293 292 291 290 291 287 286 285 281 283 274 287 296 294 292 294 296
309 308 308 308 306 305 305 306 306 306 307 301 299 295 290 285 288 288 288 288 289 290 289 290 294 297 298 293 289 288 289 290 290 290 289 289 286 283 279 279 283 287 290 290 288 289 297
308 307 307 306 305 305 305 305 305 306 307 305 301 300 294 287 288 290 287 288 286 287 289 292 296 299 295 291 288 282 282 285 285 288 294 293 288 284 284 279 277 287 291 293 291 285 298
307 306 305 303 303 303 303 302 304 305 306 305 303 301 296 288 291 291 287 287 290 289 286 290 292 293 294 288 283 281 282 288 283 283 284 286 287 282 282 281 285 290 292 292 283 288 295
304 303 302 302 302 303 303 302 303 304 305 305 301 303 296 291 293 295 295 291 290 289 284 291 290 292 291 287 285 285 283 286 285 288 287 285 284 284 285 282 280 295 291 285 290 293 294
302 301 301 301 301 301 301 302 302 303 302 304 298 304 302 294 293 300 300 300 298 296 291 292 291 291 292 289 289 288 285 287 286 282 292 285 288 285 284 286 294 295 292 296 296 296 298
Wind_Speed
16 16 17 16 16 16 16 15 16 16 17 17 18 18 19 19 19 19 17 16 16 16 13 11 12 12 6 3 7 2 9 8 10 5 2 4 10 11 16 12 18 25 22 14 21 15 13
16 16 17 17 17 17 17 17 17 18 18 18 19 19 20 21 20 20 19 16 14 15 12 7 8 5 2 5 1 5 5 8 3 1 1 2 5 10 10 14 21 12 20 21 15 15 15
16 16 17 17 17 18 18 19 20 20 20 20 21 21 21 22 22 22 22 20 15 13 9 3 4 5 3 10 2 7 8 4 3 2 1 6 8 8 3 12 12 18 19 13 18 23 16
16 17 17 17 17 18 18 19 19 20 21 21 20 21 22 23 23 23 23 23 19 14 3 5 6 3 8 4 6 11 5 6 7 6 4 6 5 6 8 9 9 11 17 23 25 11 10
17 17 17 18 18 18 18 19 20 20 21 21 20 19 21 22 22 22 22 22 16 4 6 10 5 1 9 2 6 4 6 7 8 4 5 3 4 6 7 13 10 15 21 26 24 22 15
17 17 17 18 18 18 18 18 19 20 21 21 21 21 21 21 22 21 23 16 2 8 5 4 4 4 4 12 12 15 6 10 6 6 4 4 6 9 12 14 22 17 24 21 17 12 22
17 17 18 18 19 19 19 20 19 20 21 21 21 21 21 21 21 21 11 2 3 1 2 3 7 6 15 11 12 5 5 5 5 5 4 4 10 17 18 19 21 10 13 19 18 9 21
17 18 18 19 20 20 20 20 20 21 21 21 22 22 21 21 19 17 4 5 4 2 9 4 10 10 13 7 7 10 3 2 3 11 6 5 14 13 12 12 17 22 18 10 8 9 8
17 17 18 19 19 20 20 20 20 21 22 22 22 22 22 21 22 1 1 6 4 5 4 8 5 5 6 9 6 10 2 2 6 9 9 11 12 9 14 17 18 18 22 20 10 6 12
17 18 18 19 18 19 21 21 22 22 22 23 22 21 20 19 2 3 2 6 3 7 3 4 3 2 8 15 5 13 5 7 5 8 9 12 13 8 15 14 19 19 10 15 20 12 13
18 18 19 18 19 20 22 23 23 24 24 23 23 22 17 7 5 3 2 5 3 4 5 8 3 4 15 5 11 6 7 3 10 14 7 20 14 16 16 17 15 17 11 9 5 9 11
18 19 19 19 21 21 21 22 24 24 24 26 25 23 9 3 3 4 5 3 3 3 4 4 6 13 18 11 9 8 11 8 8 9 11 20 15 17 17 11 13 13 16 21 17 13 16
18 18 19 20 21 23 23 24 24 25 26 27 28 20 4 3 2 4 4 1 3 3 4 4 9 12 19 7 13 13 18 11 6 7 10 15 16 15 17 13 9 9 12 9 11 13 17
18 18 18 18 19 22 24 25 26 25 26 28 26 6 2 2 4 5 1 1 3 1 4 7 9 18 4 8 12 15 11 10 4 4 7 6 8 13 5 22 17 15 14 8 16 13 14
18 19 20 20 21 22 23 25 28 27 27 28 16 2 1 4 1 1 2 0 3 1 5 8 15 5 2 5 9 9 13 8 4 2 6 7 5 10 12 9 19 12 10 16 6 1 8
18 20 21 21 22 21 23 24 27 29 29 24 3 3 3 8 2 1 2 2 2 3 8 5 5 3 7 12 9 11 7 4 6 3 1 4 10 1 13 12 12 14 9 10 7 6 8
17 18 19 17 20 21 24 25 26 26 29 20 2 0 3 7 1 3 2 3 5 5 7 3 5 8 9 8 7 9 7 13 3 7 8 7 5 3 5 8 4 8 7 8 9 12 5
17 17 18 18 17 18 20 23 26 23 24 7 4 1 4 4 2 1 1 6 6 6 2 4 6 8 7 8 9 7 9 7 10 7 13 3 5 8 6 7 6 3 4 8 9 19 11
17 17 18 18 17 16 17 19 22 23 19 5 5 4 2 3 2 2 4 5 5 5 7 4 4 2 3 4 7 8 10 4 11 10 3 8 1 7 6 6 4 3 3 5 6 6 15
18 18 18 18 18 15 16 17 20 22 18 2 3 4 3 4 1 2 4 3 6 5 10 4 9 10 5 5 12 10 14 10 10 11 16 13 5 9 9 8 7 9 11 10 7 10 13
17 19 19 18 18 16 14 15 18 19 17 1 4 3 2 5 2 7 4 4 8 6 4 8 3 7 8 7 14 16 12 13 17 21 10 5 8 11 15 15 15 17 18 17 17 17 15
18 18 19 18 18 17 14 12 14 15 16 3 3 4 2 5 7 6 3 3 8 4 5 9 7 13 16 16 17 23 19 15 6 5 2 7 7 8 15 14 15 20 21 20 23 21 24
17 17 18 17 17 16 15 11 11 12 7 1 1 1 2 3 4 4 2 3 7 14 10 11 14 16 16 18 16 21 21 22 16 6 5 4 4 3 8 6 5 12 21 22 21 21 17
17 17 16 16 16 15 17 14 8 10 1 1 1 1 2 4 3 6 11 15 14 10 14 18 17 11 9 19 20 13 7 9 9 13 14 8 11 6 6 4 7 1 6 5 14 19 18
17 16 17 15 14 14 14 13 13 11 11 2 1 2 2 5 5 11 8 12 14 12 13 15 16 10 11 10 6 6 1 4 2 7 8 13 4 4 4 6 9 12 5 7 6 12 13
17 17 14 16 17 15 14 12 15 12 13 2 3 3 1 3 3 5 10 7 7 7 7 7 12 7 4 3 3 5 4 5 4 7 8 3 10 4 5 6 5 4 6 12 8 9 1
15 14 15 17 17 16 15 14 14 15 11 4 3 6 3 4 6 3 5 5 4 4 6 10 7 4 2 5 4 3 4 5 5 7 6 5 4 4 9 7 5 2 14 10 6 4 16
15 16 16 16 17 17 16 15 14 14 13 5 4 7 4 5 9 11 11 7 5 4 3 6 8 2 3 4 3 3 3 4 5 6 8 4 6 3 4 4 3 6 8 2 6 14 15
15 16 17 17 17 17 16 15 15 14 14 10 4 2 4 4 7 14 19 22 23 19 6 3 5 5 2 2 1 2 3 3 5 4 3 4 4 4 2 4 10 11 13 14 14 17 12
Wind_Direction
16 12 10 7 6 3 360 355 352 349 346 344 343 342 339 335 333 330 326 324 321 318 310 298 287 295 326 310 258 270 329 331 331 348 333 262 217 218 226 223 226 233 233 239 244 243 246
10 8 5 4 1 359 356 352 350 347 346 342 341 341 339 335 334 331 325 323 318 320 318 285 268 288 346 308 198 243 307 317 355 88 247 227 245 240 260 243 224 235 235 240 242 234 242
6 4 1 360 357 357 354 351 349 346 344 343 341 341 339 334 333 331 326 325 323 322 316 238 202 187 234 248 271 301 302 259 195 182 284 230 248 252 309 252 253 253 254 241 233 232 240
3 1 359 358 356 354 353 350 349 345 342 340 339 340 338 334 332 330 324 317 318 322 268 156 153 144 260 259 290 286 257 268 233 214 214 229 244 286 233 300 256 231 235 243 231 202 226
3 1 359 357 355 353 351 348 347 345 343 341 339 338 336 331 328 326 318 306 309 307 121 134 121 124 286 263 302 323 211 278 289 192 207 183 158 222 213 231 245 223 235 227 238 217 214
2 1 358 356 353 350 347 345 343 343 342 341 338 337 336 331 327 324 316 311 43 119 133 163 123 256 244 332 325 311 258 254 274 279 143 173 199 223 217 208 220 231 235 248 240 220 218
3 0 358 357 353 350 347 342 341 340 338 337 337 336 333 329 328 327 332 64 1 227 23 281 288 275 282 296 298 276 303 266 251 244 241 208 225 223 231 233 249 256 281 251 248 222 223
2 0 359 356 353 350 348 345 343 341 338 336 338 334 333 329 328 318 309 69 89 315 310 283 258 247 268 265 285 323 309 294 273 256 174 217 251 264 255 251 242 247 250 259 266 244 245
359 357 355 352 349 345 346 342 342 341 339 336 336 333 332 330 323 333 28 150 125 151 250 295 252 261 307 316 283 314 289 290 266 259 243 246 266 284 240 243 242 236 241 235 254 289 271
357 354 353 348 344 343 344 342 341 339 336 332 332 331 327 329 227 342 217 145 288 194 270 288 325 137 346 321 242 324 204 312 239 266 256 245 249 239 242 246 239 242 224 234 235 245 246
356 354 352 348 346 344 342 340 341 339 334 330 331 328 320 314 317 226 67 322 145 202 299 339 312 342 331 327 299 344 326 308 275 272 266 269 276 249 244 232 224 242 222 203 205 241 266
355 354 352 350 349 347 342 342 339 338 335 331 333 331 315 131 196 263 306 306 198 220 263 344 326 336 339 336 315 307 328 310 279 268 251 264 267 251 227 250 213 228 221 221 238 247 248
355 353 353 351 350 349 347 344 343 341 338 334 335 335 171 152 16 328 313 162 243 227 352 345 329 332 328 307 326 327 327 325 319 298 290 304 268 236 232 231 221 215 177 179 207 212 237
353 353 351 350 349 349 348 346 343 342 340 337 335 344 185 229 295 321 331 221 245 12 294 318 325 315 304 351 334 330 315 324 68 28 289 317 294 351 205 223 223 222 208 214 213 207 224
351 350 349 349 350 349 350 347 344 341 343 342 334 4 71 348 5 118 317 81 213 237 310 317 320 311 310 332 326 327 317 295 339 27 347 306 274 277 291 267 218 192 214 235 299 315 221
349 348 348 348 348 347 348 350 349 341 342 345 351 335 27 328 348 51 61 293 259 241 320 300 286 266 294 322 324 335 314 284 327 9 269 297 294 214 292 290 219 212 202 199 208 222 216
343 341 341 341 344 347 348 349 351 345 341 340 20 105 13 339 268 48 57 290 296 299 335 271 276 283 292 309 309 306 270 291 287 341 319 291 263 315 321 342 314 181 205 225 245 238 274
341 342 338 337 337 337 341 347 348 347 346 2 343 286 8 321 51 45 357 321 310 291 312 281 263 271 270 305 294 274 263 275 323 327 321 333 295 289 272 194 250 312 287 280 238 221 241
335 335 336 335 335 334 337 339 339 343 7 326 349 296 345 314 56 4 327 298 272 283 318 300 294 279 314 278 301 256 281 288 340 308 305 354 288 314 308 150 162 271 297 260 265 269 252
333 333 333 331 333 334 337 338 338 335 356 341 335 332 3 45 41 18 329 327 318 326 299 267 297 286 279 276 286 280 281 294 302 296 293 318 244 254 270 304 316 292 292 285 286 258 259
332 331 331 328 329 331 336 338 336 336 351 343 9 42 9 322 6 320 302 281 287 307 296 315 264 238 313 281 302 268 269 299 290 287 277 262 259 240 254 268 283 280 280 279 267 257 257
331 328 328 327 331 331 332 333 339 340 344 63 3 352 3 294 296 298 275 248 291 333 309 296 259 295 297 290 283 287 290 282 245 302 240 234 260 280 267 263 258 269 269 265 258 259 258
324 321 325 330 332 334 334 333 337 342 355 346 143 182 214 280 304 307 281 318 306 323 290 249 296 297 285 286 294 286 280 277 257 238 246 242 234 269 262 246 285 269 249 243 254 253 258
322 326 330 332 338 355 355 342 327 334 305 261 196 166 259 285 256 283 296 301 298 291 286 280 292 276 292 316 299 275 250 255 252 243 230 240 226 229 265 275 247 352 65 330 287 277 269
323 326 329 341 346 340 339 335 337 331 324 191 201 201 224 268 276 290 312 309 305 298 278 274 283 292 319 305 311 314 225 202 242 206 221 228 235 251 241 205 285 283 43 338 312 296 281
324 328 341 337 331 329 332 343 333 327 313 236 216 200 202 283 247 264 306 296 304 316 308 284 313 315 310 324 315 354 336 321 318 320 206 270 213 237 235 254 269 79 329 327 298 267 273
329 332 337 331 330 333 332 335 327 323 318 312 252 186 215 254 258 219 252 305 289 279 291 297 339 298 312 9 21 0 312 314 313 312 326 314 275 213 245 248 255 49 333 314 214 14 324
331 333 330 326 326 324 327 326 321 317 315 324 267 191 207 253 270 256 260 245 248 206 235 325 314 191 293 16 356 0 296 329 295 296 307 311 313 315 274 280 310 339 326 304 295 297 293
329 328 326 326 327 324 323 321 318 312 309 317 266 207 222 259 274 292 270 260 253 245 248 241 290 295 278 291 263 292 287 273 310 306 339 307 329 299 266 288 277 301 270 273 283 289 279